JST621 YMAV-YPAD

Flight info

Callsign JST621
Flight time 1h 2m
Altitude 32000
Route ML H345 DRINA
Aircraft A320/M-SDE3FGHIRWY/LB1

Departure

Time 2026-04-25 10:58
Airport Melbourne Avalon International Airport (YMAV)

Arrival

Time 2026-04-25 12:01
Airport Adelaide International Airport (YPAD)
Time Latitude Longitude Altitude Speed Heading
2026-04-25 10:50 -38.02792 144.47261 36 ft 0 kts 97°
2026-04-25 10:52 -38.02792 144.47267 36 ft 2 kts 97°
2026-04-25 10:53 -38.02797 144.47313 36 ft 8 kts 97°
2026-04-25 10:53 -38.02830 144.47365 36 ft 9 kts 178°
2026-04-25 10:53 -38.02899 144.47358 35 ft 11 kts 185°
2026-04-25 10:53 -38.02979 144.47346 34 ft 12 kts 189°
2026-04-25 10:54 -38.03070 144.47324 36 ft 14 kts 192°
2026-04-25 10:54 -38.03134 144.47295 36 ft 15 kts 208°
2026-04-25 10:54 -38.03236 144.47155 36 ft 18 kts 236°
2026-04-25 10:54 -38.03336 144.47059 36 ft 19 kts 200°
2026-04-25 10:55 -38.03470 144.47030 35 ft 21 kts 187°
2026-04-25 10:55 -38.03621 144.47006 36 ft 23 kts 187°
2026-04-25 10:55 -38.03781 144.46978 36 ft 24 kts 187°
2026-04-25 10:55 -38.03958 144.46948 36 ft 27 kts 188°
2026-04-25 10:56 -38.04147 144.46914 35 ft 28 kts 187°
2026-04-25 10:56 -38.04313 144.46887 36 ft 19 kts 187°
2026-04-25 10:56 -38.04417 144.46870 36 ft 14 kts 187°
2026-04-25 10:56 -38.04516 144.46853 36 ft 15 kts 187°
2026-04-25 10:57 -38.04620 144.46836 37 ft 11 kts 188°
2026-04-25 10:57 -38.04644 144.46770 37 ft 11 kts 279°
2026-04-25 10:57 -38.04632 144.46668 36 ft 11 kts 277°
2026-04-25 10:57 -38.04613 144.46623 36 ft 5 kts 343°
2026-04-25 10:58 -38.04465 144.46648 37 ft 52 kts
2026-04-25 10:58 -38.03857 144.46750 34 ft 120 kts
2026-04-25 10:58 -38.02888 144.46911 309 ft 146 kts
2026-04-25 10:58 -38.01908 144.47083 1028 ft 142 kts
2026-04-25 10:59 -38.00947 144.47346 1717 ft 145 kts 22°
2026-04-25 10:59 -38.00041 144.48064 2065 ft 163 kts 23°
2026-04-25 10:59 -37.98953 144.48618 2369 ft 175 kts
2026-04-25 10:59 -37.97740 144.48380 2755 ft 186 kts 331°
2026-04-25 11:00 -37.96760 144.47172 3050 ft 212 kts 312°
2026-04-25 11:00 -37.95787 144.45637 3441 ft 234 kts 311°
2026-04-25 11:00 -37.94758 144.43984 4173 ft 242 kts 309°
2026-04-25 11:00 -37.93701 144.42282 4827 ft 250 kts 308°
2026-04-25 11:01 -37.92616 144.40540 5646 ft 253 kts 308°
2026-04-25 11:01 -37.91512 144.38775 6477 ft 258 kts 307°
2026-04-25 11:01 -37.90383 144.36977 7243 ft 263 kts 307°
2026-04-25 11:01 -37.89232 144.35154 8024 ft 266 kts 307°
2026-04-25 11:02 -37.88068 144.33316 8822 ft 269 kts 308°
2026-04-25 11:02 -37.86888 144.31458 9608 ft 272 kts 308°
2026-04-25 11:02 -37.85692 144.29576 10319 ft 279 kts 309°
2026-04-25 11:02 -37.84422 144.27581 10510 ft 302 kts 309°
2026-04-25 11:03 -37.83056 144.25430 10707 ft 322 kts 309°
2026-04-25 11:03 -37.81635 144.23193 11250 ft 329 kts 309°
2026-04-25 11:03 -37.80195 144.20926 11902 ft 333 kts 309°
2026-04-25 11:03 -37.78739 144.18638 12581 ft 335 kts 309°
2026-04-25 11:04 -37.77270 144.16334 13262 ft 338 kts 309°
2026-04-25 11:04 -37.75786 144.14008 13948 ft 341 kts 309°
2026-04-25 11:04 -37.74294 144.11668 14546 ft 343 kts 309°
2026-04-25 11:04 -37.73299 144.10108 14931 ft 345 kts 309°
2026-04-25 11:05 -37.71272 144.06937 15707 ft 349 kts 309°
2026-04-25 11:05 -37.69744 144.04544 16269 ft 351 kts 310°
2026-04-25 11:05 -37.68202 144.02132 16834 ft 354 kts 310°
2026-04-25 11:05 -37.66646 143.99705 17396 ft 357 kts 310°
2026-04-25 11:06 -37.65073 143.97253 17978 ft 360 kts 310°
2026-04-25 11:06 -37.63492 143.94789 18560 ft 363 kts 310°
2026-04-25 11:06 -37.61892 143.92299 19080 ft 366 kts 310°
2026-04-25 11:06 -37.60283 143.89795 19597 ft 369 kts 310°
2026-04-25 11:07 -37.58656 143.87262 20104 ft 373 kts 310°
2026-04-25 11:07 -37.57014 143.84707 20628 ft 377 kts 310°
2026-04-25 11:07 -37.55357 143.82131 21146 ft 380 kts 309°
2026-04-25 11:07 -37.53686 143.79533 21651 ft 383 kts 309°
2026-04-25 11:08 -37.52005 143.76922 22147 ft 386 kts 309°
2026-04-25 11:08 -37.50309 143.74291 22614 ft 389 kts 309°
2026-04-25 11:08 -37.48618 143.71670 23055 ft 392 kts 309°
2026-04-25 11:08 -37.46895 143.68999 23512 ft 395 kts 309°
2026-04-25 11:09 -37.45154 143.66307 23935 ft 398 kts 309°
2026-04-25 11:09 -37.43400 143.63602 24306 ft 400 kts 309°
2026-04-25 11:09 -37.41634 143.60886 24690 ft 402 kts 309°
2026-04-25 11:09 -37.39860 143.58157 25068 ft 404 kts 309°
2026-04-25 11:10 -37.38080 143.55414 25448 ft 406 kts 308°
2026-04-25 11:10 -37.36875 143.53556 25698 ft 407 kts 308°
2026-04-25 11:10 -37.34498 143.49898 26192 ft 409 kts 308°
2026-04-25 11:10 -37.32698 143.47126 26556 ft 410 kts 308°
2026-04-25 11:11 -37.30890 143.44347 26911 ft 412 kts 308°
2026-04-25 11:11 -37.29071 143.41556 27271 ft 413 kts 308°
2026-04-25 11:11 -37.27246 143.38761 27646 ft 415 kts 308°
2026-04-25 11:11 -37.25409 143.35950 27984 ft 417 kts 307°
2026-04-25 11:12 -37.23566 143.33133 28323 ft 418 kts 307°
2026-04-25 11:12 -37.21717 143.30306 28672 ft 420 kts 307°
2026-04-25 11:12 -37.20018 143.27332 29010 ft 420 kts 299°
2026-04-25 11:12 -37.18726 143.24060 29391 ft 418 kts 290°
2026-04-25 11:13 -37.17708 143.20662 29937 ft 415 kts 290°
2026-04-25 11:13 -37.16688 143.17293 30477 ft 411 kts 290°
2026-04-25 11:13 -37.15669 143.13958 30917 ft 409 kts 290°
2026-04-25 11:13 -37.14647 143.10638 31321 ft 408 kts 290°
2026-04-25 11:14 -37.13625 143.07326 31713 ft 407 kts 290°
2026-04-25 11:14 -37.12604 143.04019 32083 ft 407 kts 290°
2026-04-25 11:14 -37.11581 143.00698 32214 ft 410 kts 290°
2026-04-25 11:15 -37.09546 142.94072 32238 ft 415 kts 290°
2026-04-25 11:15 -37.07448 142.87247 32236 ft 422 kts 291°
2026-04-25 11:16 -37.04273 142.76950 32234 ft 423 kts 291°
2026-04-25 11:16 -37.02157 142.70104 32233 ft 421 kts 291°
2026-04-25 11:17 -37.00040 142.63280 32231 ft 421 kts 291°
2026-04-25 11:17 -36.97913 142.56462 32228 ft 421 kts 291°
2026-04-25 11:18 -36.95789 142.49643 32230 ft 420 kts 291°
2026-04-25 11:18 -36.93674 142.42886 32232 ft 420 kts 291°
2026-04-25 11:19 -36.91540 142.36093 32227 ft 420 kts 291°
2026-04-25 11:19 -36.89401 142.29307 32225 ft 419 kts 291°
2026-04-25 11:20 -36.87265 142.22528 32222 ft 419 kts 292°
2026-04-25 11:20 -36.85131 142.15760 32216 ft 419 kts 292°
2026-04-25 11:21 -36.82990 142.08998 32207 ft 419 kts 292°
2026-04-25 11:21 -36.80850 142.02236 32205 ft 419 kts 292°
2026-04-25 11:22 -36.79071 141.96611 32205 ft 419 kts 292°
2026-04-25 11:22 -36.76546 141.88713 32200 ft 420 kts 292°
2026-04-25 11:23 -36.74378 141.81952 32199 ft 420 kts 292°
2026-04-25 11:23 -36.72227 141.75228 32189 ft 421 kts 292°
2026-04-25 11:24 -36.70058 141.68458 32184 ft 421 kts 292°
2026-04-25 11:24 -36.67879 141.61679 32179 ft 422 kts 292°
2026-04-25 11:25 -36.65695 141.54898 32179 ft 422 kts 292°
2026-04-25 11:25 -36.63505 141.48119 32187 ft 422 kts 292°
2026-04-25 11:26 -36.61308 141.41339 32185 ft 422 kts 293°
2026-04-25 11:26 -36.59109 141.34562 32189 ft 422 kts 293°
2026-04-25 11:27 -36.56900 141.27780 32193 ft 423 kts 293°
2026-04-25 11:27 -36.55419 141.23247 32187 ft 423 kts 293°
2026-04-25 11:28 -36.52841 141.15367 32185 ft 423 kts 293°
2026-04-25 11:28 -36.50623 141.08588 32189 ft 424 kts 293°
2026-04-25 11:29 -36.48400 141.01800 32181 ft 425 kts 293°
2026-04-25 11:29 -36.46167 140.95001 32185 ft 425 kts 294°
2026-04-25 11:30 -36.43916 140.88203 32181 ft 426 kts 294°
2026-04-25 11:30 -36.41671 140.81403 32183 ft 426 kts 293°
2026-04-25 11:31 -36.39317 140.74667 32183 ft 425 kts 300°
2026-04-25 11:31 -36.35840 140.68756 32181 ft 424 kts 308°
2026-04-25 11:32 -36.32193 140.62997 32190 ft 424 kts 308°
2026-04-25 11:32 -36.28554 140.57239 32192 ft 424 kts 308°
2026-04-25 11:33 -36.24907 140.51497 32197 ft 424 kts 308°
2026-04-25 11:33 -36.21288 140.45803 32188 ft 424 kts 308°
2026-04-25 11:34 -36.17638 140.40072 32212 ft 424 kts 308°
2026-04-25 11:34 -36.13991 140.34357 32212 ft 422 kts 308°
2026-04-25 11:35 -36.10352 140.28658 32211 ft 422 kts 308°
2026-04-25 11:35 -36.06708 140.22968 32204 ft 421 kts 308°
2026-04-25 11:36 -36.03127 140.17381 32190 ft 408 kts 308°
2026-04-25 11:36 -35.99638 140.11958 32179 ft 405 kts 308°
2026-04-25 11:37 -35.96135 140.06514 32187 ft 404 kts 308°
2026-04-25 11:37 -35.92640 140.01091 32191 ft 404 kts 308°
2026-04-25 11:38 -35.89143 139.95661 32200 ft 404 kts 308°
2026-04-25 11:38 -35.85646 139.90248 32196 ft 403 kts 308°
2026-04-25 11:39 -35.83902 139.87551 31779 ft 402 kts 308°
2026-04-25 11:39 -35.82160 139.84858 31292 ft 403 kts 308°
2026-04-25 11:39 -35.80410 139.82159 30797 ft 402 kts 308°
2026-04-25 11:39 -35.78665 139.79471 30321 ft 401 kts 308°
2026-04-25 11:40 -35.76927 139.76796 29771 ft 399 kts 308°
2026-04-25 11:40 -35.75195 139.74134 29224 ft 396 kts 308°
2026-04-25 11:40 -35.73479 139.71498 28686 ft 393 kts 308°
2026-04-25 11:40 -35.71780 139.68886 28162 ft 390 kts 308°
2026-04-25 11:41 -35.70091 139.66293 27647 ft 387 kts 308°
2026-04-25 11:41 -35.68412 139.63719 27129 ft 385 kts 308°
2026-04-25 11:41 -35.66740 139.61158 26629 ft 383 kts 308°
2026-04-25 11:41 -35.65071 139.58604 25788 ft 388 kts 309°
2026-04-25 11:42 -35.63376 139.56013 25225 ft 386 kts 309°
2026-04-25 11:42 -35.61703 139.53454 24799 ft 381 kts 309°
2026-04-25 11:42 -35.60049 139.50924 24348 ft 378 kts 309°
2026-04-25 11:42 -35.58410 139.48418 23907 ft 375 kts 309°
2026-04-25 11:43 -35.56804 139.45962 23442 ft 372 kts 309°
2026-04-25 11:43 -35.55170 139.43467 23003 ft 368 kts 309°
2026-04-25 11:43 -35.53576 139.41036 22587 ft 364 kts 309°
2026-04-25 11:43 -35.51992 139.38625 22169 ft 361 kts 309°
2026-04-25 11:44 -35.50424 139.36241 21743 ft 357 kts 309°
2026-04-25 11:44 -35.48872 139.33881 21318 ft 354 kts 309°
2026-04-25 11:44 -35.47337 139.31546 20901 ft 350 kts 309°
2026-04-25 11:44 -35.45833 139.29261 20471 ft 347 kts 309°
2026-04-25 11:45 -35.44325 139.26971 20047 ft 344 kts 310°
2026-04-25 11:45 -35.42743 139.24787 19529 ft 342 kts 318°
2026-04-25 11:45 -35.40825 139.23072 19031 ft 341 kts 330°
2026-04-25 11:45 -35.38652 139.21905 18518 ft 342 kts 338°
2026-04-25 11:46 -35.36431 139.20884 17948 ft 340 kts 338°
2026-04-25 11:46 -35.34234 139.19867 17645 ft 331 kts 338°
2026-04-25 11:46 -35.32156 139.18906 17488 ft 307 kts 338°
2026-04-25 11:46 -35.30224 139.18015 17234 ft 289 kts 338°
2026-04-25 11:47 -35.28372 139.17157 16679 ft 281 kts 338°
2026-04-25 11:47 -35.26554 139.16313 16053 ft 278 kts 338°
2026-04-25 11:47 -35.24756 139.15481 15430 ft 275 kts 338°
2026-04-25 11:47 -35.22972 139.14653 14846 ft 274 kts 338°
2026-04-25 11:48 -35.21185 139.13825 14373 ft 275 kts 338°
2026-04-25 11:48 -35.19388 139.12992 13934 ft 277 kts 338°
2026-04-25 11:48 -35.17594 139.12161 13473 ft 273 kts 339°
2026-04-25 11:48 -35.15828 139.11337 13059 ft 272 kts 338°
2026-04-25 11:49 -35.14066 139.10503 12644 ft 270 kts 338°
2026-04-25 11:49 -35.12347 139.09682 12235 ft 260 kts 338°
2026-04-25 11:49 -35.10695 139.08887 11838 ft 251 kts 338°
2026-04-25 11:49 -35.09072 139.08108 11453 ft 251 kts 338°
2026-04-25 11:50 -35.07441 139.07323 11061 ft 253 kts 338°
2026-04-25 11:50 -35.05801 139.06526 10677 ft 255 kts 338°
2026-04-25 11:50 -35.04151 139.05715 10297 ft 257 kts 338°
2026-04-25 11:50 -35.02512 139.04903 9908 ft 258 kts 338°
2026-04-25 11:51 -35.00842 139.04068 9491 ft 260 kts 338°
2026-04-25 11:51 -34.99164 139.03231 9079 ft 261 kts 338°
2026-04-25 11:51 -34.97454 139.02385 8665 ft 263 kts 338°
2026-04-25 11:51 -34.95777 139.01557 8294 ft 263 kts 338°
2026-04-25 11:52 -34.94094 139.00731 8044 ft 260 kts 338°
2026-04-25 11:52 -34.92416 138.99913 7797 ft 260 kts 338°
2026-04-25 11:52 -34.90741 138.99097 7557 ft 260 kts 338°
2026-04-25 11:52 -34.89125 138.98125 7308 ft 259 kts 322°
2026-04-25 11:53 -34.87831 138.96591 7033 ft 261 kts 314°
2026-04-25 11:53 -34.86613 138.94958 6697 ft 261 kts 313°
2026-04-25 11:53 -34.85398 138.93321 6361 ft 260 kts 313°
2026-04-25 11:53 -34.84201 138.91722 6209 ft 249 kts 313°
2026-04-25 11:54 -34.83064 138.90204 6067 ft 237 kts 313°
2026-04-25 11:54 -34.81967 138.88739 5868 ft 232 kts 313°
2026-04-25 11:54 -34.80342 138.85455 5305 ft 232 kts 283°
2026-04-25 11:55 -34.80089 138.83521 5031 ft 231 kts 281°
2026-04-25 11:55 -34.79878 138.81591 4747 ft 229 kts 280°
2026-04-25 11:55 -34.79675 138.79696 4589 ft 222 kts 280°
2026-04-25 11:55 -34.79479 138.77870 4466 ft 213 kts 279°
2026-04-25 11:56 -34.79547 138.76115 4361 ft 219 kts 259°
2026-04-25 11:56 -34.80222 138.74391 4114 ft 231 kts 236°
2026-04-25 11:56 -34.81252 138.72892 3823 ft 231 kts 233°
2026-04-25 11:56 -34.82285 138.71412 3516 ft 228 kts 234°
2026-04-25 11:57 -34.83289 138.69965 3228 ft 219 kts 233°
2026-04-25 11:57 -34.84246 138.68579 2947 ft 209 kts 233°
2026-04-25 11:57 -34.85164 138.67249 2689 ft 203 kts 233°
2026-04-25 11:57 -34.86069 138.65935 2412 ft 202 kts 233°
2026-04-25 11:58 -34.86968 138.64631 2178 ft 198 kts 232°
2026-04-25 11:58 -34.87847 138.63356 1890 ft 195 kts 231°
2026-04-25 11:58 -34.88694 138.62127 1634 ft 183 kts 231°
2026-04-25 11:58 -34.89463 138.61011 1409 ft 160 kts 231°
2026-04-25 11:59 -34.90140 138.60028 1200 ft 146 kts 230°
2026-04-25 11:59 -34.90783 138.59090 983 ft 143 kts 230°
2026-04-25 11:59 -34.91424 138.58159 807 ft 143 kts 229°
2026-04-25 12:00 -34.92711 138.56294 468 ft 144 kts 229°
2026-04-25 12:00 -34.93347 138.55367 292 ft 142 kts 230°
2026-04-25 12:00 -34.94581 138.53572 22 ft 119 kts 230°
2026-04-25 12:01 -34.94999 138.52965 22 ft 70 kts 230°
2026-04-25 12:01 -34.95210 138.52654 21 ft 20 kts 230°
2026-04-25 12:01 -34.95232 138.52552 22 ft 13 kts 309°
2026-04-25 12:01 -34.95152 138.52475 22 ft 16 kts 326°
2026-04-25 12:02 -34.94927 138.52549 20 ft 21 kts 38°
2026-04-25 12:02 -34.94805 138.52664 22 ft 23 kts 37°
2026-04-25 12:02 -34.94670 138.52789 21 ft 25 kts 37°
2026-04-25 12:03 -34.94535 138.52917 24 ft 20 kts 38°
2026-04-25 12:03 -34.94448 138.53006 25 ft 14 kts 54°
2026-04-25 12:03 -34.94461 138.53126 24 ft 16 kts 122°
2026-04-25 12:03 -34.94519 138.53256 23 ft 19 kts 103°
2026-04-25 12:04 -34.94465 138.53402 23 ft 21 kts 50°
2026-04-25 12:04 -34.94366 138.53545 23 ft 23 kts 50°
2026-04-25 12:04 -34.94285 138.53658 26 ft 12 kts 36°
2026-04-25 12:04 -34.94203 138.53637 28 ft 12 kts 358°
2026-04-25 12:05 -34.94168 138.53662 26 ft 2 kts 50°
2026-04-25 12:05 -34.94166 138.53666 25 ft 0 kts 51°
2026-04-25 12:05 -34.94162 138.53672 25 ft 2 kts 51°
2026-04-25 12:05 -34.94130 138.53674 27 ft 6 kts 332°
2026-04-25 12:06 -34.94100 138.53643 27 ft 6 kts 320°
2026-04-25 12:06 -34.94080 138.53623 27 ft 0 kts 320°